Location: Asheville, NC
(35.6000°N, 82.5500°W)
Time: 04:52:24
(UTC-04:00)

Vanguard 1 Rocket - Pass Details

Date: 14 February 2018
Orbit: 652 x 4225 km, 34.3° (Epoch: 20 May)

Event Time Altitude Azimuth Distance (km) Brightness Sun altitude
Exits shadow 03:21:05 81° 247° (WSW) 3,971 10.2 -48.2°
Maximum altitude 03:23:05 87° 178° (S) 3,863 10.2 -47.8°
Drops below altitude 10° 03:41:50 10° 92° (E) 5,421 11.9 -44.2°
Sets 03:45:05 0° 92° (E) 6,065 12.3 -43.6°
